Location: Carnières
(50.1682°N, 3.3474°E)
Time: 20:11:18
(UTC+00:00)

SL-16 R/B - Pass Details

Date: 14 August 2024
Orbit: 842 x 845 km, 71.0° (Epoch: 10 September)

Event Time Altitude Azimuth Distance (km) Brightness Sun altitude
Exits shadow 22:03:09 24° 94° (E) 1,686 3.5 -21.6°
Drops below altitude 10° 22:07:04 10° 50° (NE) 2,474 4.8 -21.9°
Sets 22:09:56 0° 38° (NE) 3,414 5.7 -22.1°
